Change the Weather History Date:

Thursday, October 25, 2012

  Actual Average Record
Temperature  
Mean Temperature 58 °F 60 °F  
Max Temperature 71 °F 71 °F 92 °F (2014)
Min Temperature 44 °F 49 °F 29 °F (1957)
Degree Days  
Heating Degree Days 7 7  
Month to date heating degree days 98 99  
Since 1 July heating degree days 106 118  
Cooling Degree Days 0 1  
Month to date cooling degree days 60 61  
Year to date cooling degree days 2492 2086  
Growing Degree Days 8 (Base 50)    
Moisture  
Dew Point 46 °F    
Average Humidity 66    
Maximum Humidity 81    
Minimum Humidity 50    
Precipitation  
Precipitation T in 0.12 in 1.65 in (1899)
Month to date precipitation 2.67 3.05  
Year to date precipitation 27.99 32.00  
Snow  
Snow 0.00 in 0.00 in T in (1957)
Month to date snowfall 0.0 0.0  
Since 1 July snowfall 0.0 0.0  
Snow Depth -    
Sea Level Pressure  
Sea Level Pressure 29.95 in    
Wind  
Wind Speed 20 mph (NNW)    
Max Wind Speed 33 mph    
Max Gust Speed 41 mph    
Visibility 10 miles    
Events Rain    
T = Trace of Precipitation, MM = Missing Value Source: NWS Daily Summary

Daily Weather History Graph

Daily Weather History Graph

Search for Another Location

Airport or City:

Trip Planner

Search our weather history database for the weather conditions in past years. The results will help you decide how hot, cold, wet, or windy it might be!

Date:

Astronomy

Oct. 25, 2012 Rise Set
Actual Time 7:45 AM CDT 6:42 PM CDT
Civil Twilight 7:19 AM CDT 7:08 PM CDT
Nautical Twilight 6:50 AM CDT 7:38 PM CDT
Astronomical Twilight 6:20 AM CDT 8:07 PM CDT
Moon 4:22 PM CDT (10/25) 3:51 AM CDT (10/25)
Length of Visible Light 11h 48m
Length of Day
10h 56m
Waxing Gibbous, 84% of the Moon is Illuminated
Oct 25
Waxing Gibbous
Oct 29
Full
Nov 6
Last Quarter
Nov 13
New
Nov 20
First Quarter

Hourly Weather History & Observations

Time (CDT) Temp. Windchill Dew Point Humidity Pressure Visibility Wind Dir Wind Speed Gust Speed Precip Events Conditions
12:52 AM 70.0 °F - 62.1 °F 76% 29.69 in 10.0 mi South 16.1 mph 25.3 mph N/A   Partly Cloudy
1:52 AM 70.0 °F - 62.1 °F 76% 29.70 in 10.0 mi South 16.1 mph - N/A   Clear
2:52 AM 70.0 °F - 62.1 °F 76% 29.72 in 10.0 mi South 15.0 mph - N/A   Clear
3:52 AM 69.1 °F - 62.1 °F 78% 29.70 in 10.0 mi South 16.1 mph - N/A   Clear
4:52 AM 68.0 °F - 62.1 °F 81% 29.69 in 10.0 mi South 17.3 mph - N/A   Partly Cloudy
5:52 AM 68.0 °F - 61.0 °F 78% 29.71 in 10.0 mi South 16.1 mph - N/A   Mostly Cloudy
6:52 AM 68.0 °F - 60.8 °F 78% 29.78 in 10.0 mi South 13.8 mph - N/A   Mostly Cloudy
7:52 AM 68.0 °F - 60.8 °F 78% 29.80 in 10.0 mi SSW 13.8 mph - N/A   Mostly Cloudy
8:05 AM 60.8 °F - 53.6 °F 77% 29.86 in 10.0 mi NW 32.2 mph 38.0 mph N/A   Mostly Cloudy
8:11 AM 59.0 °F - 50.0 °F 72% 29.87 in 10.0 mi NW 26.5 mph 38.0 mph N/A   Mostly Cloudy
8:52 AM 53.1 °F - 44.1 °F 71% 29.91 in 10.0 mi NNW 28.8 mph 38.0 mph N/A   Overcast
9:52 AM 48.0 °F - 44.1 °F 86% 29.96 in 8.0 mi North 26.5 mph 33.4 mph 0.00 in Rain Light Rain
10:52 AM 50.0 °F - 39.9 °F 68% 29.99 in 10.0 mi NNW 25.3 mph 31.1 mph 0.00 in   Overcast
11:52 AM 52.0 °F - 39.0 °F 61% 30.01 in 10.0 mi North 21.9 mph 34.5 mph N/A   Overcast
12:17 PM 53.6 °F - 39.2 °F 58% 30.05 in 10.0 mi NNW 25.3 mph 32.2 mph N/A   Overcast
12:52 PM 53.1 °F - 39.0 °F 59% 30.04 in 10.0 mi NNW 29.9 mph 36.8 mph N/A   Overcast
1:48 PM 55.4 °F - 37.4 °F 51% 30.05 in 10.0 mi North 29.9 mph 38.0 mph N/A   Scattered Clouds
1:52 PM 55.0 °F - 37.9 °F 53% 30.04 in 10.0 mi North 25.3 mph 41.4 mph N/A   Scattered Clouds
2:52 PM 54.0 °F - 37.0 °F 53% 30.04 in 10.0 mi North 28.8 mph 39.1 mph N/A   Unknown
3:52 PM 54.0 °F - 37.0 °F 53% 30.05 in 10.0 mi North 21.9 mph 32.2 mph N/A   Partly Cloudy
4:52 PM 53.1 °F - 36.0 °F 52% 30.06 in 10.0 mi North 21.9 mph 29.9 mph N/A   Partly Cloudy
5:52 PM 53.1 °F - 35.1 °F 50% 30.08 in 10.0 mi North 23.0 mph 28.8 mph N/A   Clear
6:52 PM 51.1 °F - 35.1 °F 54% 30.12 in 10.0 mi NNE 17.3 mph 25.3 mph N/A   Partly Cloudy
7:52 PM 48.9 °F - 35.1 °F 59% 30.14 in 10.0 mi NNE 18.4 mph 25.3 mph N/A   Partly Cloudy
8:52 PM 48.0 °F - 35.1 °F 61% 30.18 in 10.0 mi NNE 17.3 mph 25.3 mph N/A   Clear
9:52 PM 46.9 °F - 35.1 °F 63% 30.19 in 10.0 mi North 13.8 mph 23.0 mph N/A   Clear
10:52 PM 46.9 °F - 35.1 °F 63% 30.21 in 10.0 mi North 16.1 mph 21.9 mph N/A   Scattered Clouds
11:52 PM 44.6 °F 37.4 °F 33.8 °F 66% 30.22 in 10.0 mi North 16.1 mph - N/A   Scattered Clouds